Orbital Elements at Epoch 2459200.5 (2020-Dec-17.0) TDB
Reference: JPL 43 (heliocentric ecliptic J2000)
Element | Value | Uncertainty (1-sigma) | Units |
e | .2670848823943264 | 4.2093e-08 | |
a | 3.934106302334254 | 3.9981e-08 | au |
q | 2.883365983248531 | 1.7162e-07 | au |
i | 3.836240592118011 | 4.7323e-06 | deg |
node | 97.96309983427746 | 7.6731e-05 | deg |
peri | 261.2718974247986 | 7.7331e-05 | deg |
M | 268.4547085282549 | 1.141e-05 | deg |
tp | 2459925.271444165530 (2022-Dec-11.77144417) | 9.8559e-05 | TDB |
period | 2850.148988603322 7.80 | 4.3448e-05 1.19e-07 | d yr |
n | .1263091864458683 | 1.9255e-09 | deg/d |
Q | 4.984846621419976 | 5.0659e-08 | au |
|
| | Orbit Determination Parameters
Additional Information
|